This demonstration page uses our WeatherBlox Daily Observations layout. Learn more.

Left ArrowRight Arrow

36.17497, -115.13722

Hourly Observations for March 24, 2015

Temp ( °F °C ) Dew Point ( °F °C ) Humidity (%) Winds ( mph kmh ) Pressure ( in mb ) Visibility ( mi km ) Precip ( " mm )
12:53 am 00:53 Clear 65 18.3 26 -3.3 23 23 WSW 3 6 29.98 1015 10 16 N/A
1:53 am 01:53 Clear 62 16.7 25 -3.9 24 24 VRB 5 7 30.00 1016 10 16 N/A
2:53 am 02:53 Clear 63 17.2 23 -5 22 22 NNW 9 15 30.00 1016 10 16 N/A
3:53 am 03:53 Clear 62 16.7 24 -4.4 23 23 NNW 9 15 29.98 1015 10 16 N/A
4:53 am 04:53 Clear 60 15.6 26 -3.3 27 27 N 8 13 29.98 1015 10 16 N/A
5:53 am 05:53 Clear 60 15.6 27 -2.8 28 28 NNW 7 11 30.00 1016 10 16 N/A
6:53 am 06:53 Sunny 59 15 27 -2.8 29 29 NNW 8 13 30.01 1016 10 16 N/A
7:53 am 07:53 Sunny 62 16.7 25 -3.9 24 24 NW 15 24 30.03 1017 10 16 N/A
8:53 am 08:53 Sunny 65 18.3 23 -5 20 20 N 9 15 30.05 1018 10 16 N/A
9:53 am 09:53 Sunny 69 20.6 22 -5.6 17 17 N 8 13 30.06 1018 10 16 N/A
10:53 am 10:53 Sunny 73 22.8 20 -6.7 13 13 ENE 14 22 30.05 1018 10 16 N/A
11:53 am 11:53 Sunny 73 22.8 20 -6.7 13 13 E 9 15 30.04 1017 10 16 N/A
12:53 pm 12:53 Sunny 75 23.9 19 -7.2 12 12 VRB 3 6 30.02 1017 10 16 N/A
1:53 pm 13:53 Sunny 77 25 18 -7.8 11 11 ENE 5 7 29.99 1016 10 16 N/A
2:53 pm 14:53 Sunny 77 25 18 -7.8 11 11 VRB 5 7 29.96 1015 10 16 N/A
3:53 pm 15:53 Sunny 78 25.6 18 -7.8 10 10 SSE 6 9 29.93 1014 10 16 N/A
4:53 pm 16:53 Sunny 78 25.6 18 -7.8 10 10 VRB 6 9 29.92 1013 10 16 N/A
5:53 pm 17:53 Sunny 78 25.6 20 -6.7 11 11 NNW 6 9 29.91 1013 10 16 N/A
6:53 pm 18:53 Mostly Sunny 77 25 20 -6.7 12 12 NNW 8 13 29.92 1013 10 16 N/A
7:53 pm 19:53 Clear 75 23.9 21 -6.1 13 13 NNW 17 28 29.92 1013 10 16 N/A
8:53 pm 20:53 Clear 73 22.8 21 -6.1 14 14 NNW 13 20 29.95 1014 10 16 N/A
9:53 pm 21:53 Clear 71 21.7 21 -6.1 15 15 NW 16 26 29.96 1015 10 16 N/A
10:53 pm 22:53 Clear 71 21.7 20 -6.7 14 14 NNW 13 20 29.98 1015 10 16 N/A
11:53 pm 23:53 Clear 69 20.6 21 -6.1 16 16 NNW 15 24 29.99 1016 10 16 N/A

Powered by AerisWeather